| time (UTC) | temp C | wind direction | speed KPH | gust KPH | rain 1hr cm | rain 24hr cm | rain mn cm | humidity % | barometer mb |
| 20260506092116 | 12 | 49 | 14.5 | 29.0 | 0.00 | 0.00 | 0.00 | 27 | 1009.5 |
| 20260506091608 | 12 | 14 | 19.3 | 27.4 | 0.00 | 0.00 | 0.00 | 25 | 1009.3 |
| 20260506091101 | 12 | 10 | 22.5 | 29.0 | 0.00 | 0.00 | 0.00 | 24 | 1009.2 |
| 20260506090601 | 12 | 10 | 19.3 | 29.0 | 0.00 | 0.00 | 0.00 | 22 | 1009.3 |
| 20260506090040 | 12 | 18 | 24.1 | 29.0 | 0.00 | 0.00 | 0.00 | 19 | 1009.3 |
| 20260506085532 | 12 | 10 | 16.1 | 25.7 | 0.00 | 0.00 | 0.00 | 19 | 1009.3 |
| 20260506085030 | 12 | 17 | 16.1 | 29.0 | 0.00 | 0.00 | 0.00 | 14 | 1009.3 |
| 20260506084529 | 12 | 10 | 14.5 | 29.0 | 0.00 | 0.00 | 0.00 | 15 | 1009.4 |
| 20260506084017 | 12 | 42 | 19.3 | 25.7 | 0.00 | 0.00 | 0.00 | 12 | 1009.4 |
| 20260506083517 | 12 | 10 | 20.9 | 25.7 | 0.00 | 0.00 | 0.00 | 12 | 1009.3 |
| 20260506083017 | 12 | 14 | 14.5 | 22.5 | 0.00 | 0.00 | 0.00 | 10 | 1009.3 |
| 20260506082517 | 11 | 10 | 17.7 | 24.1 | 0.00 | 0.00 | 0.00 | 12 | 1009.3 |
| 20260506081517 | 11 | 14 | 19.3 | 25.7 | 0.00 | 0.00 | 0.00 | 13 | 1009.2 |
| 20260506081017 | 11 | 10 | 12.9 | 22.5 | 0.00 | 0.00 | 0.00 | 13 | 1009.3 |
| 20260506080517 | 11 | 31 | 14.5 | 29.0 | 0.00 | 0.00 | 0.00 | 14 | 1009.3 |
| 20260506073502 | 11 | 10 | 19.3 | 27.4 | 0.00 | 0.00 | 0.00 | 1 | 1009.0 |
| 20260506073002 | 11 | 10 | 17.7 | 24.1 | 0.00 | 0.00 | 0.00 | 1 | 1009.1 |
| 20260506072503 | 11 | 10 | 17.7 | 24.1 | 0.00 | 0.00 | 0.00 | 1 | 1009.2 |
| 20260506071502 | 11 | 24 | 16.1 | 25.7 | 0.00 | 0.00 | 0.00 | 1 | 1009.1 |
| 20260506071002 | 11 | 13 | 16.1 | 24.1 | 0.00 | 0.00 | 0.00 | 1 | 1009.1 |
| 20260506070502 | 11 | 10 | 17.7 | 25.7 | 0.00 | 0.00 | 0.00 | 1 | 1009.1 |
| 20260506062430 | 11 | 10 | 20.9 | 29.0 | 0.00 | 0.00 | 0.00 | 1 | 1008.8 |
| 20260506061924 | 11 | 10 | 22.5 | 29.0 | 0.00 | 0.00 | 0.00 | 1 | 1008.9 |
| 20260506061423 | 10 | 10 | 24.1 | 29.0 | 0.00 | 0.00 | 0.00 | 1 | 1008.8 |
| 20260506060917 | 11 | 10 | 22.5 | 29.0 | 0.00 | 0.00 | 0.00 | 1 | 1008.9 |
| 20260506060416 | 10 | 10 | 19.3 | 27.4 | 0.00 | 0.00 | 0.00 | 1 | 1008.7 |
| 20260506051330 | 10 | 10 | 17.7 | 24.1 | 0.00 | 0.00 | 0.00 | 1 | 1008.9 |
| 20260506050831 | 10 | 10 | 17.7 | 24.1 | 0.00 | 0.00 | 0.00 | 1 | 1008.9 |
| 20260506050330 | 10 | 26 | 17.7 | 24.1 | 0.00 | 0.00 | 0.00 | 1 | 1008.9 |
| 20260506044829 | 10 | 10 | 16.1 | 24.1 | 0.00 | 0.00 | 0.00 | 1 | 1008.9 |
| 20260506044321 | 10 | 10 | 17.7 | 22.5 | 0.00 | 0.00 | 0.00 | 1 | 1009.0 |
| 20260506043817 | 10 | 13 | 19.3 | 22.5 | 0.00 | 0.00 | 0.00 | 1 | 1008.9 |
| 20260506043316 | 10 | 1 | 17.7 | 25.7 | 0.00 | 0.00 | 0.00 | 1 | 1008.9 |
| 20260506042816 | 10 | 10 | 14.5 | 25.7 | 0.00 | 0.00 | 0.00 | 1 | 1009.0 |
| 20260506042316 | 10 | 13 | 20.9 | 25.7 | 0.00 | 0.00 | 0.00 | 1 | 1008.9 |
| 20260506041316 | 10 | 44 | 14.5 | 29.0 | 0.00 | 0.00 | 0.00 | 1 | 1009.0 |
| 20260506040816 | 10 | 10 | 14.5 | 29.0 | 0.00 | 0.00 | 0.00 | 1 | 1009.0 |
| 20260506040316 | 10 | 10 | 17.7 | 29.0 | 0.00 | 0.00 | 0.00 | 1 | 1008.9 |
| 20260506035817 | 10 | 10 | 19.3 | 29.0 | 0.00 | 0.00 | 0.00 | 1 | 1009.0 |
| 20260506035317 | 10 | 14 | 22.5 | 30.6 | 0.00 | 0.00 | 0.00 | 1 | 1008.9 |
| 20260506034815 | 10 | 13 | 27.4 | 30.6 | 0.00 | 0.00 | 0.00 | 1 | 1008.8 |
| 20260506034316 | 10 | 24 | 24.1 | 29.0 | 0.00 | 0.00 | 0.00 | 1 | 1009.0 |
| 20260506033817 | 10 | 10 | 17.7 | 25.7 | 0.00 | 0.00 | 0.00 | 1 | 1009.0 |
| 20260506033322 | 10 | 17 | 16.1 | 25.7 | 0.00 | 0.00 | 0.00 | 1 | 1009.0 |
| 20260506032816 | 10 | 17 | 19.3 | 25.7 | 0.00 | 0.00 | 0.00 | 1 | 1009.1 |
| 20260506032316 | 10 | 10 | 17.7 | 27.4 | 0.00 | 0.00 | 0.00 | 1 | 1009.1 |
| 20260506031816 | 10 | 13 | 19.3 | 30.6 | 0.00 | 0.00 | 0.00 | 1 | 1009.2 |
| 20260506031316 | 10 | 10 | 22.5 | 32.2 | 0.00 | 0.00 | 0.00 | 1 | 1009.2 |
| 20260506030816 | 10 | 14 | 24.1 | 32.2 | 0.00 | 0.00 | 0.00 | 1 | 1009.1 |
| 20260506030316 | 10 | 10 | 24.1 | 32.2 | 0.00 | 0.00 | 0.00 | 1 | 1009.2 |
| 20260506024817 | 10 | 10 | 20.9 | 29.0 | 0.00 | 0.00 | 0.00 | 1 | 1009.3 |
| 20260506023816 | 10 | 20 | 24.1 | 29.0 | 0.00 | 0.00 | 0.00 | 1 | 1009.3 |
| 20260506023317 | 10 | 10 | 22.5 | 27.4 | 0.00 | 0.00 | 0.00 | 1 | 1009.4 |
| 20260506022816 | 10 | 10 | 19.3 | 27.4 | 0.00 | 0.00 | 0.00 | 1 | 1009.3 |
| 20260506021816 | 10 | 10 | 20.9 | 24.1 | 0.00 | 0.00 | 0.00 | 1 | 1009.4 |
| 20260506021315 | 10 | 14 | 16.1 | 24.1 | 0.00 | 0.00 | 0.00 | 1 | 1009.5 |
| 20260506020316 | 10 | 26 | 17.7 | 22.5 | 0.00 | 0.00 | 0.00 | 1 | 1009.5 |
| 20260506015816 | 10 | 10 | 16.1 | 20.9 | 0.00 | 0.00 | 0.00 | 3 | 1009.5 |
| 20260506015317 | 10 | 10 | 12.9 | 19.3 | 0.00 | 0.00 | 0.00 | 3 | 1009.7 |
| 20260506014817 | 10 | 14 | 14.5 | 22.5 | 0.00 | 0.00 | 0.00 | 3 | 1009.5 |
| 20260506014317 | 10 | 10 | 19.3 | 22.5 | 0.00 | 0.00 | 0.00 | 3 | 1009.7 |
| 20260506013816 | 10 | 10 | 17.7 | 24.1 | 0.00 | 0.00 | 0.00 | 2 | 1009.7 |
| 20260506013316 | 10 | 14 | 17.7 | 24.1 | 0.00 | 0.00 | 0.00 | 3 | 1009.6 |
| 20260506012816 | 9 | 28 | 14.5 | 19.3 | 0.00 | 0.00 | 0.00 | 3 | 1009.6 |
| 20260506012317 | 9 | 18 | 12.9 | 17.7 | 0.00 | 0.00 | 0.00 | 4 | 1009.7 |
| 20260506011816 | 9 | 10 | 14.5 | 19.3 | 0.00 | 0.00 | 0.00 | 4 | 1009.6 |
| 20260506011316 | 9 | 17 | 14.5 | 19.3 | 0.00 | 0.00 | 0.00 | 4 | 1009.6 |
| 20260506010816 | 9 | 14 | 14.5 | 19.3 | 0.00 | 0.00 | 0.00 | 5 | 1009.8 |
| 20260506005816 | 9 | 16 | 12.9 | 19.3 | 0.00 | 0.00 | 0.00 | 5 | 1009.8 |
| 20260506005316 | 9 | 24 | 12.9 | 19.3 | 0.00 | 0.00 | 0.00 | 6 | 1009.9 |
| 20260506004816 | 9 | 10 | 11.3 | 19.3 | 0.00 | 0.00 | 0.00 | 6 | 1009.9 |
| 20260506004316 | 9 | 10 | 14.5 | 19.3 | 0.00 | 0.00 | 0.00 | 6 | 1009.9 |
| 20260506003816 | 9 | 10 | 12.9 | 19.3 | 0.00 | 0.00 | 0.00 | 6 | 1010.0 |
| 20260506003322 | 9 | 20 | 14.5 | 19.3 | 0.00 | 0.00 | 0.00 | 7 | 1010.0 |
| 20260506002816 | 9 | 10 | 12.9 | 19.3 | 0.00 | 0.00 | 0.00 | 7 | 1010.1 |
| 20260506002317 | 9 | 13 | 14.5 | 19.3 | 0.00 | 0.00 | 0.00 | 8 | 1010.2 |
| 20260506001816 | 9 | 10 | 14.5 | 20.9 | 0.00 | 0.00 | 0.00 | 9 | 1010.2 |
| 20260506001316 | 9 | 16 | 14.5 | 20.9 | 0.00 | 0.00 | 0.00 | 9 | 1010.3 |
| 20260506000816 | 9 | 13 | 16.1 | 20.9 | 0.00 | 0.00 | 0.00 | 10 | 1010.2 |
| 20260506000316 | 9 | 11 | 16.1 | 20.9 | 0.00 | 0.00 | 0.00 | 11 | 1010.2 |
| 20260505235816 | 9 | 10 | 14.5 | 20.9 | 0.00 | 0.00 | 0.00 | 11 | 1010.3 |
| 20260505234815 | 9 | 10 | 12.9 | 17.7 | 0.00 | 0.00 | 0.00 | 14 | 1010.5 |
| 20260505234316 | 9 | 27 | 12.9 | 17.7 | 0.00 | 0.00 | 0.00 | 14 | 1010.6 |
| 20260505233815 | 9 | 17 | 12.9 | 22.5 | 0.00 | 0.00 | 0.00 | 14 | 1010.5 |
| 20260505233317 | 9 | 353 | 16.1 | 22.5 | 0.00 | 0.00 | 0.00 | 14 | 1010.4 |
| 20260505232816 | 9 | 10 | 16.1 | 20.9 | 0.00 | 0.00 | 0.00 | 15 | 1010.5 |
| 20260505232316 | 9 | 10 | 12.9 | 19.3 | 0.00 | 0.00 | 0.00 | 16 | 1010.5 |
| 20260505231816 | 9 | 10 | 12.9 | 19.3 | 0.00 | 0.00 | 0.00 | 16 | 1010.7 |
| 20260505231309 | 9 | 10 | 12.9 | 20.9 | 0.00 | 0.00 | 0.00 | 16 | 1010.8 |
| 20260505230802 | 9 | 21 | 17.7 | 20.9 | 0.00 | 0.00 | 0.00 | 17 | 1010.7 |
| 20260505230255 | 9 | 24 | 12.9 | 20.9 | 0.00 | 0.00 | 0.00 | 17 | 1010.7 |
| 20260505225745 | 9 | 358 | 14.5 | 19.3 | 0.00 | 0.00 | 0.00 | 17 | 1010.8 |
| 20260505225240 | 9 | 10 | 11.3 | 17.7 | 0.00 | 0.00 | 0.00 | 18 | 1010.7 |
| 20260505223730 | 9 | 17 | 9.7 | 17.7 | 0.00 | 0.00 | 0.00 | 19 | 1010.8 |
| 20260505222729 | 9 | 28 | 11.3 | 17.7 | 0.00 | 0.00 | 0.00 | 20 | 1010.8 |
| 20260505221726 | 9 | 357 | 9.7 | 17.7 | 0.00 | 0.00 | 0.00 | 21 | 1010.8 |
| 20260505221221 | 9 | 14 | 9.7 | 19.3 | 0.00 | 0.00 | 0.00 | 21 | 1010.9 |
| 20260505220721 | 9 | 35 | 9.7 | 19.3 | 0.00 | 0.00 | 0.00 | 21 | 1011.0 |
| 20260505215716 | 9 | 33 | 12.9 | 19.3 | 0.00 | 0.00 | 0.00 | 22 | 1011.0 |
| 20260505215215 | 10 | 28 | 11.3 | 19.3 | 0.00 | 0.00 | 0.00 | 23 | 1011.0 |
| 20260505214702 | 10 | 20 | 12.9 | 17.7 | 0.00 | 0.00 | 0.00 | 24 | 1011.1 |
| 20260505214202 | 10 | 20 | 14.5 | 17.7 | 0.00 | 0.00 | 0.00 | 24 | 1011.2 |
| 20260505213701 | 10 | 11 | 11.3 | 17.7 | 0.00 | 0.00 | 0.00 | 24 | 1011.1 |
| 20260505212702 | 10 | 47 | 12.9 | 16.1 | 0.00 | 0.00 | 0.00 | 26 | 1011.2 |
| 20260505211655 | 10 | 24 | 8.0 | 20.9 | 0.00 | 0.00 | 0.00 | 28 | 1011.2 |
| 20260505211139 | 10 | 14 | 11.3 | 20.9 | 0.00 | 0.00 | 0.00 | 29 | 1011.2 |
| 20260505210640 | 10 | 11 | 11.3 | 22.5 | 0.00 | 0.00 | 0.00 | 30 | 1011.2 |
| 20260505210139 | 10 | 37 | 11.3 | 22.5 | 0.00 | 0.00 | 0.00 | 30 | 1011.2 |
| 20260505204629 | 10 | 17 | 12.9 | 19.3 | 0.00 | 0.00 | 0.00 | 32 | 1011.1 |
| 20260505204130 | 10 | 23 | 11.3 | 16.1 | 0.00 | 0.00 | 0.00 | 32 | 1011.2 |
| 20260505203629 | 10 | 10 | 9.7 | 17.7 | 0.00 | 0.00 | 0.00 | 33 | 1011.2 |
| 20260505203129 | 10 | 47 | 9.7 | 17.7 | 0.00 | 0.00 | 0.00 | 34 | 1011.2 |
| 20260505202630 | 10 | 21 | 9.7 | 20.9 | 0.00 | 0.00 | 0.00 | 35 | 1011.0 |
| 20260505202129 | 10 | 13 | 12.9 | 22.5 | 0.00 | 0.00 | 0.00 | 35 | 1011.0 |
| 20260505201618 | 10 | 10 | 14.5 | 22.5 | 0.00 | 0.00 | 0.00 | 36 | 1010.9 |
| 20260505201118 | 10 | 42 | 11.3 | 22.5 | 0.00 | 0.00 | 0.00 | 36 | 1011.1 |
| 20260505200616 | 10 | 18 | 14.5 | 22.5 | 0.00 | 0.00 | 0.00 | 36 | 1010.9 |
| 20260505200109 | 10 | 16 | 17.7 | 29.0 | 0.00 | 0.00 | 0.00 | 36 | 1010.9 |
| 20260505195606 | 10 | 27 | 16.1 | 29.0 | 0.00 | 0.00 | 0.00 | 37 | 1010.9 |
| 20260505195104 | 10 | 10 | 11.3 | 25.7 | 0.00 | 0.00 | 0.00 | 37 | 1011.0 |
| 20260505194602 | 10 | 10 | 14.5 | 25.7 | 0.00 | 0.00 | 0.00 | 39 | 1010.8 |
| 20260505194102 | 10 | 10 | 19.3 | 24.1 | 0.00 | 0.00 | 0.00 | 40 | 1010.8 |
| 20260505193102 | 10 | 14 | 11.3 | 22.5 | 0.00 | 0.00 | 0.00 | 43 | 1010.8 |
| 20260505192602 | 10 | 35 | 14.5 | 27.4 | 0.00 | 0.00 | 0.00 | 43 | 1010.8 |
| 20260505192102 | 10 | 5 | 20.9 | 27.4 | 0.00 | 0.00 | 0.00 | 44 | 1010.6 |
| 20260505191559 | 10 | 14 | 19.3 | 24.1 | 0.00 | 0.00 | 0.00 | 44 | 1010.6 |
| 20260505191050 | 10 | 10 | 14.5 | 24.1 | 0.00 | 0.00 | 0.00 | 43 | 1010.8 |
| 20260505190035 | 11 | 10 | 17.7 | 25.7 | 0.00 | 0.00 | 0.00 | 45 | 1010.5 |
| 20260505185531 | 11 | 10 | 12.9 | 27.4 | 0.00 | 0.00 | 0.00 | 47 | 1010.6 |
| 20260505185030 | 11 | 28 | 17.7 | 30.6 | 0.00 | 0.00 | 0.00 | 47 | 1010.6 |
| 20260505184530 | 11 | 16 | 20.9 | 30.6 | 0.00 | 0.00 | 0.00 | 48 | 1010.4 |
| 20260505184030 | 11 | 24 | 17.7 | 29.0 | 0.00 | 0.00 | 0.00 | 47 | 1010.6 |
| 20260505183530 | 11 | 10 | 20.9 | 29.0 | 0.00 | 0.00 | 0.00 | 47 | 1010.5 |
| 20260505183016 | 11 | 20 | 12.9 | 24.1 | 0.00 | 0.00 | 0.00 | 47 | 1010.5 |
| 20260505182522 | 11 | 49 | 16.1 | 24.1 | 0.00 | 0.00 | 0.00 | 48 | 1010.5 |
| 20260505182016 | 11 | 10 | 17.7 | 29.0 | 0.00 | 0.00 | 0.00 | 48 | 1010.4 |
| 20260505181515 | 11 | 48 | 16.1 | 29.0 | 0.00 | 0.00 | 0.00 | 48 | 1010.5 |
| 20260505181009 | 11 | 35 | 16.1 | 27.4 | 0.00 | 0.00 | 0.00 | 48 | 1010.4 |
| 20260505180502 | 11 | 11 | 19.3 | 27.4 | 0.00 | 0.00 | 0.00 | 49 | 1010.4 |
| 20260505180004 | 12 | 23 | 16.1 | 27.4 | 0.00 | 0.00 | 0.00 | 48 | 1010.6 |
| 20260505175502 | 12 | 10 | 19.3 | 27.4 | 0.00 | 0.00 | 0.00 | 49 | 1010.5 |
| 20260505175002 | 12 | 13 | 16.1 | 25.7 | 0.00 | 0.00 | 0.00 | 51 | 1010.5 |
| 20260505174002 | 12 | 17 | 17.7 | 24.1 | 0.00 | 0.00 | 0.00 | 51 | 1010.6 |
| 20260505173501 | 12 | 5 | 14.5 | 29.0 | 0.00 | 0.00 | 0.00 | 51 | 1010.5 |
| 20260505172932 | 12 | 20 | 17.7 | 29.0 | 0.00 | 0.00 | 0.00 | 52 | 1010.4 |
| 20260505172430 | 12 | 28 | 16.1 | 29.0 | 0.00 | 0.00 | 0.00 | 53 | 1010.5 |
| 20260505171929 | 12 | 14 | 19.3 | 27.4 | 0.00 | 0.00 | 0.00 | 54 | 1010.3 |
| 20260505170923 | 12 | 26 | 22.5 | 29.0 | 0.00 | 0.00 | 0.00 | 55 | 1010.3 |
| 20260505170417 | 13 | 23 | 17.7 | 30.6 | 0.00 | 0.00 | 0.00 | 55 | 1010.4 |
| 20260505165916 | 13 | 24 | 24.1 | 30.6 | 0.00 | 0.00 | 0.00 | 55 | 1010.3 |
| 20260505165416 | 13 | 23 | 16.1 | 30.6 | 0.00 | 0.00 | 0.00 | 55 | 1010.4 |
| 20260505164916 | 13 | 11 | 27.4 | 30.6 | 0.00 | 0.00 | 0.00 | 55 | 1010.2 |
| 20260505164415 | 13 | 10 | 16.1 | 27.4 | 0.00 | 0.00 | 0.00 | 55 | 1010.4 |
| 20260505163916 | 13 | 51 | 16.1 | 27.4 | 0.00 | 0.00 | 0.00 | 56 | 1010.4 |
| 20260505163415 | 13 | 21 | 14.5 | 24.1 | 0.00 | 0.00 | 0.00 | 55 | 1010.3 |
| 20260505162915 | 13 | 55 | 9.7 | 25.7 | 0.00 | 0.00 | 0.00 | 56 | 1010.5 |
| 20260505162415 | 13 | 30 | 19.3 | 27.4 | 0.00 | 0.00 | 0.00 | 55 | 1010.4 |
| 20260505161915 | 13 | 18 | 17.7 | 27.4 | 0.00 | 0.00 | 0.00 | 55 | 1010.4 |
| 20260505161415 | 13 | 5 | 17.7 | 30.6 | 0.00 | 0.00 | 0.00 | 55 | 1010.4 |
| 20260505160915 | 13 | 16 | 19.3 | 30.6 | 0.00 | 0.00 | 0.00 | 55 | 1010.5 |
| 20260505160415 | 13 | 38 | 12.9 | 29.0 | 0.00 | 0.00 | 0.00 | 55 | 1010.4 |
| 20260505152916 | 13 | 37 | 14.5 | 27.4 | 0.00 | 0.00 | 0.00 | 55 | 1010.4 |
| 20260505152415 | 13 | 24 | 17.7 | 24.1 | 0.00 | 0.00 | 0.00 | 55 | 1010.4 |
| 20260505151915 | 13 | 26 | 17.7 | 29.0 | 0.00 | 0.00 | 0.00 | 55 | 1010.4 |
| 20260505151415 | 13 | 21 | 19.3 | 29.0 | 0.00 | 0.00 | 0.00 | 55 | 1010.3 |
| 20260505150915 | 13 | 20 | 17.7 | 30.6 | 0.00 | 0.00 | 0.00 | 55 | 1010.5 |
| 20260505150415 | 13 | 353 | 16.1 | 30.6 | 0.00 | 0.00 | 0.00 | 55 | 1010.4 |
| 20260505140415 | 14 | 86 | 16.1 | 32.2 | 0.00 | 0.00 | 0.00 | 54 | 1010.7 |
| 20260505124414 | 13 | 24 | 20.9 | 32.2 | 0.00 | 0.00 | 0.00 | 54 | 1010.9 |
| 20260505123916 | 13 | 64 | 6.4 | 25.7 | 0.00 | 0.00 | 0.00 | 54 | 1011.0 |
| 20260505122904 | 13 | 49 | 16.1 | 25.7 | 0.00 | 0.00 | 0.00 | 54 | 1011.0 |
| 20260505122402 | 13 | 14 | 14.5 | 22.5 | 0.00 | 0.00 | 0.00 | 54 | 1011.1 |
| 20260505121901 | 13 | 18 | 17.7 | 27.4 | 0.00 | 0.00 | 0.00 | 53 | 1010.8 |
| 20260505120902 | 13 | 49 | 6.4 | 22.5 | 0.00 | 0.00 | 0.00 | 53 | 1011.1 |
| 20260505120402 | 13 | 16 | 12.9 | 24.1 | 0.00 | 0.00 | 0.00 | 53 | 1011.1 |
| 20260505115901 | 13 | 96 | 14.5 | 24.1 | 0.00 | 0.00 | 0.00 | 54 | 1011.2 |
| 20260505115401 | 13 | 47 | 14.5 | 24.1 | 0.00 | 0.00 | 0.00 | 54 | 1011.2 |
| 20260505113818 | 13 | 20 | 22.5 | 29.0 | 0.00 | 0.00 | 0.00 | 54 | 1011.1 |
| 20260505113318 | 13 | 95 | 19.3 | 29.0 | 0.00 | 0.00 | 0.00 | 54 | 1011.2 |
| 20260505112818 | 13 | 10 | 17.7 | 24.1 | 0.00 | 0.00 | 0.00 | 54 | 1011.2 |
| 20260505112316 | 13 | 30 | 19.3 | 20.9 | 0.00 | 0.00 | 0.00 | 52 | 1011.4 |
| 20260505111814 | 13 | 55 | 12.9 | 22.5 | 0.00 | 0.00 | 0.00 | 53 | 1011.4 |
| 20260505111315 | 13 | 47 | 16.1 | 25.7 | 0.00 | 0.00 | 0.00 | 52 | 1011.3 |
| 20260505110806 | 13 | 97 | 12.9 | 25.7 | 0.00 | 0.00 | 0.00 | 52 | 1011.4 |
| 20260505110302 | 13 | 10 | 14.5 | 24.1 | 0.00 | 0.00 | 0.00 | 53 | 1011.5 |
| 20260505102221 | 13 | 41 | 14.5 | 20.9 | 0.00 | 0.00 | 0.00 | 52 | 1011.8 |
| 20260505101722 | 13 | 23 | 16.1 | 24.1 | 0.00 | 0.00 | 0.00 | 52 | 1012.0 |
| 20260505100715 | 12 | 112 | 9.7 | 24.1 | 0.00 | 0.00 | 0.00 | 51 | 1011.7 |
| 20260505100209 | 12 | 10 | 14.5 | 24.1 | 0.00 | 0.00 | 0.00 | 51 | 1011.8 |
| 20260505095707 | 12 | 28 | 14.5 | 32.2 | 0.00 | 0.00 | 0.00 | 51 | 1011.8 |
| 20260505094704 | 12 | 10 | 20.9 | 27.4 | 0.00 | 0.00 | 0.00 | 50 | 1011.9 |
| 20260505094202 | 12 | 38 | 19.3 | 27.4 | 0.00 | 0.00 | 0.00 | 49 | 1011.9 |
| 20260505093701 | 12 | 58 | 14.5 | 25.7 | 0.00 | 0.00 | 0.00 | 48 | 1011.9 |
| 20260505093148 | 12 | 57 | 16.1 | 22.5 | 0.00 | 0.00 | 0.00 | 46 | 1012.0 |
| 20260505092630 | 12 | 11 | 12.9 | 29.0 | 0.00 | 0.00 | 0.00 | 42 | 1011.9 |